User: anonymous   Login
Location: Gradaro
(45.0833°N, 10.8833°E)
Time: 07:16:18
(UTC+00:00)
Language:

deb Kosmos-2227 - Orbit

View from above orbital plane
View from above orbital plane
View from above satellite
View from above satellite

Ground track
Ground track

The orbit data is extracted from the following two-line orbital elements,

1 22379U 92093BU  21166.53614403  .00000574  00000-0  36700-3 0  9993
2 22379  70.7064 218.8334 0091720 274.1067  84.9570 14.05880412453169
Epoch (UTC): 15 June 2021 12:52:02
Eccentricity: 0.0091720
inclination: 70.7064°
perigee height: 807 km
apogee height: 940 km
right ascension of ascending node: 218.8334°
argument of perigee: 274.1067°
revolutions per day: 14.05880412
mean anomaly at epoch: 84.9570°
orbit number at epoch: 45316

The dashed part of the orbit path shows where the satellite is in the earth's shadow,  

DLR